Flag for Kazakhstan Weather past 2 weeks in Almaty, Kazakhstan

Now
5 °F

Ice fog.


Feels Like: -2 °F
Forecast: -5 / 26 °F
Wind: 3 mph from Northeast

Location: Almaty Airport

Current Time: Jan 28, 2015 at 7:17:22 PM

Latest Report: Jan 28, 2015 at 6:30 PM


Visibility: 1 mi

Pressure: 30.36 "Hg

Humidity: 78%

Dew point: 0 °F

Location of AlmatyLocation

Historic Weather in Almaty — Graph

°F

Almaty temperature yesterday

Maximum temperature yesterday: 10 °F (at 4:00 PM)
Minimum temperature yesterday: -6 °F (at 6:00 AM)
Average temperature yesterday: 1 °F

Past Weeks' High & Low Weather Summary

 TemperatureHumidityPressure
High45 °F (Jan 18, 2:30 PM)93% (Jan 13, 8:00 PM)30.60 "Hg (Jan 13, 8:00 PM)
Low-6 °F (Jan 27, 6:00 AM)34% (Jan 18, 2:30 PM)29.95 "Hg (Jan 20, 2:30 PM)
Average20 °F79%30.31 "Hg
* Reported Jan 13 6:00 PM — Jan 28 6:00 PM, Almaty, Weather by CustomWeather, © 2014

Note: Actual official high and low records may vary slightly from our data, if they occured in-between our weather recording intervals... More about our weather records

Advertising

Almaty weather history for previous 24 hours

 ConditionsComfort  
Time TempWeatherWind HumidityBarometerVisibility
6:00 PM
Jan 28
7 °FIce fog.3 mph72%30.36 "Hg2 mi
5:30 PM7 °FScattered clouds.3 mph66%30.36 "Hg2 mi
5:00 PM9 °FScattered clouds.3 mph66%30.36 "Hg3 mi
4:30 PM10 °FScattered clouds.3 mph61%30.36 "Hg3 mi
4:00 PM10 °FScattered clouds.3 mph61%30.36 "Hg2 mi
3:30 PM10 °FScattered clouds.3 mph61%30.36 "Hg2 mi
3:00 PM10 °FScattered clouds.3 mph67%30.36 "Hg2 mi
2:30 PM9 °FPartly sunny.6 mph66%30.36 "Hg2 mi
2:00 PM9 °FPartly sunny.3 mph66%30.36 "Hg2 mi
1:30 PM9 °FIce fog.6 mph72%30.36 "Hg2 mi
1:00 PM9 °FIce fog.3 mph66%30.39 "Hg2 mi
12:30 PM7 °FIce fog.3 mph72%30.39 "Hg2 mi
12:00 PM7 °FIce fog.6 mph72%30.39 "Hg1 mi
11:30 AM5 °FIce fog.3 mph78%30.42 "Hg2 mi
11:00 AM7 °FIce fog.1 mph78%30.42 "Hg1 mi
10:30 AM5 °FIce fog.1 mph78%30.42 "Hg1 mi
10:00 AM3 °FIce fog.1 mph78%30.42 "Hg1 mi
9:30 AM3 °FIce fog.1 mph78%30.45 "Hg1 mi
9:00 AM5 °FIce fog.1 mph78%30.45 "Hg1 mi
8:30 AM3 °FIce fog.3 mph85%30.45 "Hg1 mi
8:00 AM3 °FIce fog.3 mph78%30.45 "Hg1 mi
7:30 AM3 °FIce fog.3 mph78%30.45 "Hg1 mi
7:00 AM3 °FIce fog.3 mph78%30.45 "Hg1 mi
6:30 AM3 °FIce fog.3 mph78%30.45 "Hg1 mi
6:00 AM0 °FIce fog.6 mph78%30.45 "Hg1 mi
5:30 AM-2 °FIce fog.3 mph77%30.45 "Hg1 mi
5:00 AM-4 °FIce fog.3 mph77%30.45 "Hg1 mi
4:30 AM-6 °FIce fog.3 mph77%30.45 "Hg1 mi
4:00 AM-6 °FIce fog.3 mph77%30.45 "Hg1 mi
3:30 AM-4 °FIce fog.3 mph71%30.45 "Hg1 mi
3:00 AM-4 °FIce fog.1 mph77%30.45 "Hg1 mi
2:30 AM-4 °FIce fog.3 mph77%30.48 "Hg1 mi
2:00 AM-4 °FIce fog.3 mph77%30.48 "Hg0 mi
1:30 AM-4 °FIce fog.No wind77%30.48 "Hg0 mi
1:00 AM-4 °FIce fog.1 mph77%30.48 "Hg0 mi
12:30 AM-4 °FIce fog.No wind84%30.48 "Hg0 mi
12:00 AM-2 °FIce fog.1 mph77%30.48 "Hg0 mi
11:30 PM
Jan 27
-2 °FIce fog.1 mph77%30.48 "Hg0 mi
11:00 PM-2 °FIce fog.1 mph77%30.51 "Hg0 mi
10:30 PM-2 °FIce fog.1 mph84%30.51 "Hg0 mi
10:00 PM0 °FIce fog.3 mph78%30.51 "Hg0 mi
9:30 PM-2 °FIce fog.3 mph84%30.51 "Hg0 mi
9:00 PM0 °FIce fog.1 mph78%30.54 "Hg0 mi
8:30 PM1 °FIce fog.1 mph78%30.54 "Hg2 mi
8:00 PM3 °FIce fog.1 mph72%30.54 "Hg1 mi
7:30 PM3 °FIce fog.1 mph78%30.54 "Hg2 mi
7:00 PM3 °FIce fog.3 mph78%30.51 "Hg2 mi
Weather by CustomWeather, © 2014

See weather overviewHow to use our weather pages